Regional Weather Roundup
Issued by NWS Wakefield, VA

Home | Current Version | Previous Version | Text Only | Print | Product List | Glossary Off
Versions: 1 2 3 4 5 6 7 8 9 10 11 12 13 14 15 16 17 18 19 20 21 22 23 24 25 26 27

000
ASUS41 KAKQ 220515
RWRAKQ

REGIONAL WEATHER ROUNDUP
NATIONAL WEATHER SERVICE WAKEFIELD VA
100 AM EDT WED MAR 22 2017

Note: "fair" indicates few or no clouds below 12,000 feet with no
significant weather and/or obstructions to visibility. * = Denotes
station may not report precipitation (e.g., rain,snow,etc.),
thunder or fog.

VAZ042-051-052>054-056-220600-
NORTHERN VIRGINIA

CITY           SKY/WX    TMP DP  RH WIND       PRES   REMARKS
WASH NATIONAL  CLOUDY    57  38  48 W5        29.93S
DULLES         MOCLDY    54  38  54 W9        29.92F
FORT BELVOIR   MOCLDY    50  39  67 CALM      29.92F
QUANTICO       CLOUDY    48  45  89 CALM      29.94F
FREDERICKSBRG* MOCLDY    48  44  87 CALM      29.93F
STAFFORD*      CLOUDY    46  44  93 CALM      29.98S
WARRENTON      CLOUDY    49  40  71 CALM      29.92F
CULPEPER*      CLOUDY    59  38  45 W7        29.94F
MANASSAS*      CLOUDY    56  37  49 W6        29.93F
LEESBURG*      CLOUDY    55  43  62 W14       29.93F
WINCHESTER     CLOUDY    52  37  58 NW9       29.93F
FRONT ROYAL*   FAIR      54  36  50 W5        29.93S
LURAY*         FAIR      54  39  58 SW8       29.95F
$$

VAZ048-049-060>072-079>083-220600-
CENTRAL AND SOUTH CENTRAL VIRGINIA

CITY           SKY/WX    TMP DP  RH WIND       PRES   REMARKS
RICHMOND       CLOUDY    53  45  74 S5        29.94F
CHESTERFIELD*  FAIR      50  32  50 CALM      29.97S
PETERSBURG*    FAIR      47  45  90 NW3       29.95F
HANOVER        FAIR      52  43  71 CALM      29.95F
TAPPAHANNOCK*  MOCLDY    47  39  73 CALM      29.94F
QUINTON*       CLOUDY    53  46  78 CALM      29.93F
CHARLOTTSVILLE CLOUDY    58  36  43 VRB3      29.94F
GORDONSVILLE*  CLOUDY    50  45  84 CALM      29.94F
ORANGE*        CLOUDY    50  43  76 CALM      29.96S
LOUISA*        MOCLDY    55  48  76 NW5       29.93F
BUMPASS*       FAIR      49  45  87 CALM      29.94F
FARMVILLE*     FAIR      53  48  83 CALM      29.94S
CREWE*         FAIR      53  49  84 CALM      29.94F
FORT PICKETT*  FAIR      52  45  77 E5        29.95S
CHASE CITY*    FAIR      52  51  95 CALM      29.94F
CLARKSVILLE*   MOCLDY    54  52  94 CALM      29.94S
SOUTH HILL*    MOCLDY    52  49  90 CALM      29.99F
LAWRENCEVILLE* FAIR      51  46  83 CALM      29.95S
EMPORIA*       FAIR      50  45  81 CALM      29.98R
$$

VAZ088>098-220600-
SOUTHEAST VIRGINIA

CITY           SKY/WX    TMP DP  RH WIND       PRES   REMARKS
NORFOLK        MOCLDY    49  42  77 CALM      29.95R
VIRGINIA BEACH CLOUDY    48  40  73 S3        29.95R
NORFOLK NAVAL  NOT AVBL
WEST POINT*    CLOUDY    50  42  73 CALM      29.95F
SALUDA*        CLOUDY    48  41  79 CALM      29.93F
NEWPORT NEWS   FAIR      46  42  86 CALM      29.95S
LANGLEY AFB    CLOUDY    48  44  88 CALM      29.95S
FORT EUSTIS    CLOUDY    47  41  78 CALM      29.93S
WILLIAMSBURG*  FAIR      48  43  81 CALM      29.96S
HR EXEC AP*    MOCLDY    43  39  87 CALM      29.94F
FRANKLIN*      FAIR      46  41  85 CALM      29.96S
US460-WAKEFLD  FAIR      47  43  86 CALM      29.95F
$$

VAZ020-022-025-037-045-220600-
WEST CENTRAL AND SOUTHWEST VIRGINIA

CITY           SKY/WX    TMP DP  RH WIND       PRES   REMARKS
STAUNTON*      FAIR      51  35  53 W5        29.99F
WAYNESBORO*    CLOUDY    50  36  57 SW3       29.98R
HOT SPRINGS VA FAIR      39  34  81 W12G17    29.97F
LYNCHBURG      FAIR      57  34  41 N6        29.97R
DANVILLE       LGT RAIN  59  40  49 N6        29.98R
SOUTH BOSTON*  CLOUDY    58  44  59 CALM      29.96S
MARTINSVILLE   CLOUDY    59  35  41 N8        30.01S
ROANOKE        FAIR      52  37  56 NW9       30.03R
BLACKSBURG     FAIR      47  40  76 W3        30.06S
DUBLIN*        FAIR      48  40  71 N3        30.07R
MARION*        FAIR      48  34  57 CALM      30.07F
HILLSVILLE*    FAIR      49  37  63 N5        30.01F
RICHLANDS*     MOCLDY    45  40  84 CALM      30.08R
WISE*          MOCLDY    46  37  71 CALM      30.09S
ABINGDON*      FAIR      53  35  50 NE5       30.06S
$$

MDZ021>025-VAZ099-100-220600-
SOUTHERN MARYLAND AND THE DELMARVA PENINSULA

CITY           SKY/WX    TMP DP  RH WIND       PRES   REMARKS
PATUXENT RIVER CLOUDY    49  45  86 SW6       29.93F
BAY BRIDGE APT MOCLDY    54  39  58 W6        29.91S
LEONARDTOWN    CLOUDY    46  41  81 CALM      29.95R
DOVER          CLOUDY    49  44  81 SW5       29.89F
GEORGETOWN     MOCLDY    51  39  63 W3        29.91F
EASTON         FAIR      49  41  72 CALM      29.94F
CAMBRIDGE      CLOUDY    46  41  81 CALM      29.92F
SALISBURY      CLOUDY    44  42  93 SW3       29.92F
OCEAN CITY     FAIR      46  39  76 W3        29.93F
WALLOPS ISLAND FAIR      45  41  86 CALM      29.93F
ACCOMACK*      CLOUDY    48  43  82 W3        29.93F
$$

NCZ012>017-030>032-220600-
NORTH CENTRAL AND EASTERN NORTH CAROLINA

CITY           SKY/WX    TMP DP  RH WIND       PRES   REMARKS
ROANOKE RAPIDS FAIR      55  46  71 CALM      29.94F
RALEIGH        LGT RAIN  59  57  93 VRB3      29.97F
ELIZABETH CITY CLOUDY    51  44  77 S6        29.97R
AHOSKIE*       NOT AVBL
EDENTON*       LGT RAIN  52  47  81 E5        29.96S
CURRITUCK*     CLOUDY    52  44  73 CALM      29.95S
KILL DEVIL HLS NOT AVBL
MANTEO         FAIR      48  44  85 SW3       29.96R
CAPE HATTERAS  FAIR      55  44  66 E6        29.93F
TARBORO*       NOT AVBL
GOLDSBORO      TSTM      63  57  82 W17       29.94R
WASHINGTON     CLOUDY    55  48  77 E7        29.91F
GREENVILLE     CLOUDY    55  50  82 E12       29.92F
NEW BERN       FAIR      56  50  80 E7        29.88F
WILMINGTON     FAIR      65  59  81 SW8       29.86F
$$

VAZ048-220600-
ELSEWHERE

CITY           SKY/WX    TMP DP  RH WIND       PRES   REMARKS
HARRISBURG PA  FAIR      45  32  60 NW8       29.91S
BALTIMORE      CLOUDY    53  39  59 SW5       29.91S
ANNAPOLIS      CLOUDY    56  40  55 W5        29.91S
ANDREWS AFB    MOCLDY    56  37  50 W8        29.91S
PHILADELPHIA   CLOUDY    53  36  52 W12       29.89S
HENDERSON NC   MOCLDY    55  48  78 W6        29.97R
GREENSBORO     MOCLDY    62  45  53 N10       29.96F
ROCKY MOUNT    LGT RAIN  56  54  93 NE7       29.91F
$$

VAZ100-220600-
MARINE

STATION/POSITION TIME  TEMP    WIND        PRES    WAVE   SWELL
                       AIR SEA DIR/SP/G            HT/PER HT/PER
                 (UTC) (F)     (DEG/KT/KT) (MB)    (FT/S) (FT/S)
CAPE MAY NJ      0448   45 42  230/  7/  9 1012.1F
LEWES DE         0442   51 43  240/  6/  8 1012.7F
OCEAN-CITY-INLET 0442   49 46  290/  5/  5 1013.5F
WACHAPREAGUE VA  0442   49 51  340/  2/  3 1013.2F
THOMAS POINT MD  0500   54 43  250/  9/  9   N/A
GOOSES REEF MD   0500   49 44  220/  6/  6 1013.8    0
COVE POINT MD    0448   55     280/  7/ 10 1013.9F
SOLOMONS ISLAND  0442   45 45  230/  4/  5   N/A
BISHOPS HEAD MD  0448   48 47  290/  5/  5 1013.5F
POTOMAC MD       0500   53 44  320/  4/  4 1012.4    0
CAMBRIDGE MD     0448   49 42  210/  3/  4 1012.3F
LEWISETTA VA     0442   48 48   CALM  /  1 1012.9F
RAPPAHANNOCK LGT 0448          320/  6/  6 1013.9F
STINGRAY PT      0450   48     280/  4/  6 1013.9S
YORK RVR RNG VA  0442   49     240/  8/  9 1013.3S
YORKTOWN VA      0442   48 48  200/  5/  6 1013.7S
JAMESTOWN VA     0500   49 50   CALM  /  2   N/A     0
DOMINION TERM VA 0442   50     330/  1/  2 1014.2S
KIPTOPEKE VA     0442      46  220/  6/  8   N/A
CHES BAY BRIDGE  0442   51 47  210/  4/  4 1014.1S
CAPE HENRY VA    0442   51     200/  2/  2   N/A
WILLOUBY STN VA  0442   50     260/  3/  3 1015.0F
S CRANEY ISL VA  0442   48     200/  1/  2 1014.0R
CAPE HENRY BUOY  0442      46                N/A     3/11   2/11
OFFSHORE WE BUOY 0451      46                N/A     3/11   2/11
64NM E OF VA BCH 0450   49 48  220/  4/  6 1013.5R   4/11   5/11
DUCK PIER NC     0442   49 48  180/  6/  6 1013.6S
44100 DUCK FRF   0405      47                N/A     3/11   2/11
44056 DUCK FRF   0430      48                N/A     3/11   2/11
OREGON INLET NC  0442   49 51  140/  1/  2 1014.2S
HATTERAS NC      0442   54 55   70/  5/  9 1013.2S
DIAMOND SHLS NC  0450   64 71   40/ 10/ 12 1013.2F   5/11   5/11
CAPE LOOKOUT NC  0500   60     100/  9/  9 1012.1F
$$




USA.gov is the U.S. government's official web portal to all federal, state and local government web resources and services.